This is the latest recevied weather packets stored in our database for station/object 9W2JBV-1. If no packets are shown the sender has not sent any weather packets the latest 10 day(s).
| Time | Temp. | Humidity | Pressure | Rain* | Wind** | Luminosity | Snow |
|---|---|---|---|---|---|---|---|
| 1777982575 | 31.67° C | 62% | 1015.2 hPa | - | - | - | - |
| 1777981375 | 31.67° C | 62% | 1014.9 hPa | - | - | - | - |
| 1777980175 | 31.11° C | 62% | 1014.6 hPa | - | - | - | - |
| 1777978974 | 31.67° C | 63% | 1015 hPa | - | - | - | - |
| 1777977774 | 31.67° C | 63% | 1014.9 hPa | - | - | - | - |
| 1777976574 | 31.67° C | 63% | 1015.1 hPa | - | - | - | - |
| 1777975374 | 31.67° C | 63% | 1015.1 hPa | - | - | - | - |
| 1777974174 | 31.11° C | 63% | 1014.6 hPa | - | - | - | - |
| 1777972974 | 31.11° C | 63% | 1014.1 hPa | - | - | - | - |
| 1777971774 | 31.67° C | 64% | 1014.2 hPa | - | - | - | - |
| 1777970574 | 31.67° C | 63% | 1013.4 hPa | - | - | - | - |
| 1777969374 | 32.22° C | 60% | 1014 hPa | - | - | - | - |
| 1777966973 | 34.44° C | 54% | 1013.5 hPa | - | - | - | - |
| 1777965773 | 34.44° C | 53% | 1013.6 hPa | - | - | - | - |
| 1777964573 | 33.89° C | 54% | 1013.9 hPa | - | - | - | - |
| 1777963373 | 33.89° C | 54% | 1014.4 hPa | - | - | - | - |
| 1777962177 | 33.89° C | 55% | 1014.9 hPa | - | - | - | - |
| 1777959779 | 33.89° C | 53% | 1015.4 hPa | - | - | - | - |
| 1777958576 | 33.33° C | 55% | 1015.6 hPa | - | - | - | - |
| 1777957376 | 33.33° C | 55% | 1015.9 hPa | - | - | - | - |
| 1777956179 | 33.33° C | 57% | 1016.5 hPa | - | - | - | - |
| 1777954975 | 32.78° C | 58% | 1016.8 hPa | - | - | - | - |
| 1777953775 | 32.78° C | 58% | 1017.2 hPa | - | - | - | - |
| 1777952575 | 32.78° C | 59% | 1017.4 hPa | - | - | - | - |
| 1777951375 | 32.22° C | 60% | 1017.5 hPa | - | - | - | - |
* Rain since midnight (hover to see other rain measurements)
** Current wind speed in m/s (hover to see current wind gust speed)